sat.trackr.live / text

‹ back to catalog

STARLINK-5968

NORAD 56010 · 2023-042AA

PAYLOAD ACTIVE UNKNOWN

§ Identity

Operator
Country
US
Launch date
2023-03-24
Launch site
AFETR
Launch vehicle
Mass (kg)
RCS (m²)

Purposes: comms

External: N2YO · Heavens-Above · Gunter

§ Orbital elements

Epoch: 2026-09-20T19:59:48.772896Z

Period
94.27 min
Inclination
43.0056°
Eccentricity
0.0001932
Mean motion
15.27588356 rev/d
Perigee alt
481.7 km
Apogee alt
484.3 km
Semi-major
6,861.2 km
B*
3.1932e-5
RAAN
37.5696°
Arg perigee
275.0533°
Mean anomaly
85.0098°
Rev number
19,271

§ Raw data

STARLINK-59681 56010U 23042AA  26263.83320339  .00000617  00000+0  31932-4 0  99982 56010  43.0056  37.5696 0001932 275.0533  85.0098 15.27588356192718

JSON: /api/v1/satellites/56010 · /tle

For live sub-satellite position, see the globe view (requires WebGL).

§ Visibility from observer

Set your observer location to see the next 7 days of passes ≥ 10°. The values pass through the URL so the page stays shareable.

No JS? Fill the form by hand. The geolocation button needs JavaScript.